TimeMST,TemperatureF,Dew PointF,Humidity,Sea Level PressureIn,VisibilityMPH,Wind Direction,Wind SpeedMPH,Gust SpeedMPH,PrecipitationIn,Events,Conditions,WindDirDegrees,DateUTC
12:53 AM,39.0,27.0,62,30.25,10.0,ESE,3.5,-,N/A,,Clear,120,2013-01-31 07:53:00
1:53 AM,37.9,27.0,65,30.24,10.0,ESE,3.5,-,N/A,,Clear,120,2013-01-31 08:53:00
2:53 AM,35.1,27.0,72,30.23,10.0,South,4.6,-,N/A,,Clear,190,2013-01-31 09:53:00
3:53 AM,34.0,27.0,75,30.21,10.0,Calm,Calm,-,N/A,,Clear,0,2013-01-31 10:53:00
4:53 AM,34.0,27.0,75,30.20,10.0,Calm,Calm,-,N/A,,Clear,0,2013-01-31 11:53:00
5:53 AM,33.1,27.0,78,30.21,10.0,SSE,4.6,-,N/A,,Clear,160,2013-01-31 12:53:00
6:53 AM,33.1,27.0,78,30.20,10.0,SSE,5.8,-,N/A,,Clear,150,2013-01-31 13:53:00
7:53 AM,34.0,27.0,75,30.20,10.0,Calm,Calm,-,N/A,,Clear,0,2013-01-31 14:53:00
8:53 AM,36.0,27.0,70,30.19,10.0,Calm,Calm,-,N/A,,Clear,0,2013-01-31 15:53:00
9:53 AM,44.1,28.0,53,30.19,10.0,Calm,Calm,-,N/A,,Clear,0,2013-01-31 16:53:00
10:53 AM,46.9,28.0,48,30.20,10.0,Calm,Calm,-,N/A,,Clear,0,2013-01-31 17:53:00
11:53 AM,53.1,30.0,41,30.16,10.0,West,5.8,-,N/A,,Clear,270,2013-01-31 18:53:00
12:53 PM,57.0,26.1,30,30.14,10.0,North,11.5,-,N/A,,Clear,350,2013-01-31 19:53:00
1:53 PM,60.1,24.1,25,30.10,10.0,North,10.4,-,N/A,,Clear,10,2013-01-31 20:53:00
2:53 PM,61.0,25.0,25,30.10,10.0,North,11.5,-,N/A,,Clear,350,2013-01-31 21:53:00
3:53 PM,60.1,27.0,28,30.11,10.0,NNW,6.9,-,N/A,,Clear,340,2013-01-31 22:53:00
4:53 PM,60.1,28.9,31,30.09,10.0,North,4.6,-,N/A,,Clear,360,2013-01-31 23:53:00
5:53 PM,57.0,30.9,37,30.10,10.0,North,4.6,-,N/A,,Clear,350,2013-02-01 00:53:00
6:53 PM,53.1,33.1,47,30.13,10.0,NW,3.5,-,N/A,,Clear,310,2013-02-01 01:53:00
7:53 PM,52.0,33.1,49,30.15,10.0,NW,3.5,-,N/A,,Clear,310,2013-02-01 02:53:00
8:53 PM,48.9,34.0,56,30.14,10.0,Calm,Calm,-,N/A,,Clear,0,2013-02-01 03:53:00
9:53 PM,46.0,35.1,66,30.14,10.0,Calm,Calm,-,N/A,,Clear,0,2013-02-01 04:53:00
10:53 PM,43.0,35.1,74,30.14,10.0,Variable,3.5,-,N/A,,Clear,0,2013-02-01 05:53:00
11:53 PM,43.0,32.0,65,30.14,10.0,ESE,6.9,-,N/A,,Clear,110,2013-02-01 06:53:00